Flight Track Log - Related Links

Times and Time Zones

All times are in EDT time to prevent confusion due to time zone crossing. See the CTL312 flight status page for this flight to view local times or setup timezone preferences in your user account.

Time Position Orientation Groundspeed Altitude Reporting Facility
EDT Latitude Longitude Course Direction KTS MPH feet Rate Location/Type
Wed 06:37:58 PM 41.5167 -81.7061 313° West 104 120 1,200  Level Cleveland Center
Wed 06:38:16 PM 41.5228 -81.7147 313° West 108 124 1,600 1,367 Climbing Cleveland Center
Wed 06:39:17 PM 41.5414 -81.7456 309° West 107 123 3,000 1,279 Climbing Cleveland Center
Wed 06:40:18 PM 41.5536 -81.7764 298° West 109 125 4,200 1,134 Climbing Cleveland Center
Wed 06:41:24 PM 41.5633 -81.8208 286° West 113 130 5,400 939 Climbing Cleveland Center
Wed 06:42:13 PM 41.5714 -81.8572 286° West 123 142 6,000 330 Climbing Cleveland Center
Wed 06:43:13 PM 41.5792 -81.9100 281° West 155 178 6,000  Level Cleveland Center
Wed 06:44:14 PM 41.5475 -81.9508 224° Southwest 173 199 6,000  Level Cleveland Center
Wed 06:45:15 PM 41.5114 -81.9944 222° Southwest 163 188 6,000 50 Level Cleveland Center
Wed 06:46:15 PM 41.4775 -82.0325 220° Southwest 162 186 6,100  Climbing Cleveland Center
Wed 06:48:01 PM 41.4206 -82.1028 223° Southwest 161 185 6,000  Descending Indianapolis Center
Wed 06:49:03 PM 41.3869 -82.1439 223° Southwest 162 186 6,100 48 Climbing Indianapolis Center
Wed 06:50:05 PM 41.3542 -82.1847 223° Southwest 161 185 6,100  Level Indianapolis Center
Wed 06:51:07 PM 41.3217 -82.2261 224° Southwest 161 185 6,100 -48 Level Indianapolis Center
Wed 06:52:09 PM 41.2894 -82.2700 226° Southwest 162 186 6,000 -48 Descending Indianapolis Center
Wed 06:53:11 PM 41.2561 -82.3122 224° Southwest 164 189 6,000 -48 Level Indianapolis Center
Wed 06:54:13 PM 41.2161 -82.3611 223° Southwest 165 190 5,900  Descending Indianapolis Center
Wed 06:55:15 PM 41.1797 -82.4025 221° Southwest 170 196 6,000 48 Climbing Indianapolis Center
Wed 06:56:17 PM 41.1450 -82.4464 224° Southwest 169 194 6,000  Level Indianapolis Center
Wed 06:57:19 PM 41.1122 -82.4900 225° Southwest 167 192 6,000  Level Indianapolis Center
Wed 06:58:21 PM 41.0775 -82.5322 223° Southwest 167 192 6,000  Level Indianapolis Center
Wed 06:59:22 PM 41.0419 -82.5739 221° Southwest 169 194 6,000  Level Indianapolis Center
Wed 07:00:24 PM 41.0064 -82.6139 220° Southwest 168 193 6,000  Level Indianapolis Center
Wed 07:01:26 PM 40.9714 -82.6558 222° Southwest 168 193 6,000  Level Indianapolis Center
Wed 07:02:28 PM 40.9286 -82.7036 220° Southwest 172 198 6,000  Level Indianapolis Center
Wed 07:03:30 PM 40.8917 -82.7450 220° Southwest 172 198 6,000  Level Indianapolis Center
Wed 07:04:32 PM 40.8556 -82.7869 221° Southwest 172 198 6,000  Level Indianapolis Center
Wed 07:05:33 PM 40.8208 -82.8325 225° Southwest 173 199 6,000  Level Indianapolis Center
Wed 07:06:35 PM 40.7836 -82.8742 220° Southwest 174 200 6,000  Level Indianapolis Center
Wed 07:07:37 PM 40.7478 -82.9178 223° Southwest 176 203 6,000 -48 Level Indianapolis Center
Wed 07:08:39 PM 40.7117 -82.9619 223° Southwest 175 201 5,900 -48 Descending Indianapolis Center
Wed 07:09:41 PM 40.6756 -83.0056 222° Southwest 175 201 5,900 48 Level Indianapolis Center
Wed 07:10:43 PM 40.6344 -83.0589 225° Southwest 175 201 6,000  Climbing Indianapolis Center
Wed 07:11:44 PM 40.5983 -83.1028 223° Southwest 175 201 5,900 -49 Descending Indianapolis Center
Wed 07:12:46 PM 40.5619 -83.1453 222° Southwest 175 201 5,900  Level Indianapolis Center
Wed 07:13:48 PM 40.5275 -83.1822 219° Southwest 173 199 5,900 48 Level Indianapolis Center
Wed 07:14:50 PM 40.4931 -83.2233 222° Southwest 168 193 6,000  Climbing Indianapolis Center
Wed 07:15:30 PM 40.4644 -83.2564 221° Southwest 165 190 5,900  Descending Indianapolis Center
Wed 07:15:52 PM 40.4519 -83.2697 219° Southwest 166 191 6,000  Climbing Indianapolis Center
Wed 07:16:31 PM 40.4278 -83.2986 222° Southwest 169 194 5,900  Descending Indianapolis Center
Wed 07:16:53 PM 40.4169 -83.3111 221° Southwest 167 192 6,000  Climbing Indianapolis Center
Wed 07:17:55 PM 40.3808 -83.3511 220° Southwest 168 193 5,900 -57 Descending Indianapolis Center
Wed 07:18:39 PM 40.3528 -83.3853 223° Southwest 173 199 5,900 97 Level Indianapolis Center
Wed 07:18:57 PM 40.3447 -83.3939 219° Southwest 173 199 6,000  Climbing Indianapolis Center
Wed 07:19:33 PM 40.3208 -83.4225 222° Southwest 175 201 5,900  Descending Indianapolis Center
Wed 07:19:58 PM 40.3086 -83.4378 224° Southwest 174 200 6,000 -76 Climbing Indianapolis Center
Wed 07:20:52 PM 40.2725 -83.4822 223° Southwest 176 203 5,800 -117 Descending Indianapolis Center
Wed 07:21:41 PM 40.2469 -83.5172 226° Southwest 171 197 5,800 86 Level Indianapolis Center
Wed 07:22:02 PM 40.2392 -83.5267 223° Southwest 174 200 5,900 90 Climbing Indianapolis Center
Wed 07:22:48 PM 40.2100 -83.5647 225° Southwest 171 197 5,900 97 Level Indianapolis Center
Wed 07:23:04 PM 40.2061 -83.5708 230° Southwest 171 197 6,000 100 Climbing Indianapolis Center
Wed 07:23:48 PM 40.1750 -83.6122 225° Southwest 170 196 6,000  Level Indianapolis Center
Wed 07:24:05 PM 40.1658 -83.6217 218° Southwest 171 197 6,000  Level Indianapolis Center
Wed 07:25:07 PM 40.1328 -83.6650 225° Southwest 169 194 6,000  Level Indianapolis Center
Wed 07:25:56 PM 40.1058 -83.6992 224° Southwest 167 192 6,000 -55 Level Indianapolis Center
Wed 07:26:56 PM 40.0714 -83.7411 223° Southwest 167 192 5,900  Descending Indianapolis Center
Wed 07:27:51 PM 40.0372 -83.7750 217° Southwest 165 190 6,000 79 Climbing Indianapolis Center
Wed 07:28:12 PM 40.0289 -83.7867 227° Southwest 166 191 6,000  Level Indianapolis Center
Wed 07:28:52 PM 40.0031 -83.8142 219° Southwest 165 190 6,000  Level Indianapolis Center
Wed 07:29:14 PM 39.9939 -83.8261 225° Southwest 166 191 6,000  Level Indianapolis Center
Wed 07:29:58 PM 39.9639 -83.8608 222° Southwest 168 193 6,000  Level Indianapolis Center
Wed 07:30:15 PM 39.9589 -83.8669 223° Southwest 166 191 6,000  Level Indianapolis Center
Wed 07:30:53 PM 39.9314 -83.9003 223° Southwest 168 193 6,000  Level Indianapolis Center
Wed 07:31:17 PM 39.9239 -83.9072 215° Southwest 167 192 6,000 -197 Level Indianapolis Center
Wed 07:31:54 PM 39.8972 -83.9394 223° Southwest 165 190 5,800 -492 Descending Indianapolis Center
Wed 07:32:18 PM 39.8828 -83.9544 219° Southwest 168 193 5,500 -600 Descending Indianapolis Center
Wed 07:32:54 PM 39.8603 -83.9808 222° Southwest 178 205 5,200 -581 Descending Indianapolis Center
Wed 07:33:20 PM 39.8456 -83.9972 221° Southwest 172 198 4,900 -689 Descending Indianapolis Center
Wed 07:33:55 PM 39.8217 -84.0222 219° Southwest 177 204 4,500 -677 Descending Indianapolis Center
Wed 07:34:22 PM 39.8067 -84.0389 220° Southwest 177 204 4,200 -400 Descending Indianapolis Center
Wed 07:34:55 PM 39.7869 -84.0639 224° Southwest 168 193 4,100 -197 Descending Indianapolis Center
Wed 07:35:23 PM 39.7708 -84.0792 216° Southwest 174 200 4,000 -122 Descending Indianapolis Center
Wed 07:35:44 PM 39.7575 -84.0925 218° Southwest 165 190 4,000  Level Indianapolis Center
Wed 07:36:25 PM 39.7361 -84.1156 220° Southwest 166 191 4,000  Level Indianapolis Center
Wed 07:37:27 PM 39.7019 -84.1503 218° Southwest 159 183 4,000  Level Indianapolis Center
Wed 07:38:29 PM 39.6689 -84.1847 219° Southwest 155 178 4,000  Level Indianapolis Center
Wed 07:39:30 PM 39.6361 -84.2233 222° Southwest 155 178 4,000  Level Indianapolis Center
Wed 07:40:32 PM 39.6019 -84.2608 220° Southwest 158 182 4,000  Level Indianapolis Center
Wed 07:41:33 PM 39.5606 -84.3033 218° Southwest 160 184 4,000 -439 Level Indianapolis Center
Wed 07:42:35 PM 39.5225 -84.3408 217° Southwest 164 189 3,100 -629 Descending Indianapolis Center
Wed 07:43:37 PM 39.4894 -84.3722 216° Southwest 171 197 2,700 -387 Descending Indianapolis Center
Wed 07:45:00 PM 39.4418 -84.4241 220° Southwest  Level FlightAware Approximate
Wed 07:52:00 PM 39.3638 -84.5219 218° Southwest  Level Estimated
Wed 07:53:00 PM 39.3638 -84.5219 218° Southwest  Level Estimated
Wed 07:54:00 PM 39.3638 -84.5219 218° Southwest  Level Estimated
Wed 07:55:00 PM 39.3638 -84.5219 218° Southwest  Level Estimated
Wed 07:56:00 PM 39.3638 -84.5219 218° Southwest  Level Estimated
Wed 07:57:00 PM 39.3638 -84.5219 218° Southwest  Level Estimated

Login

Don't have an account? Register now (free) for customized features, flight alerts, and more!